Weather History for Cincinnati, OH

Change the Weather History Date:

Saturday, December 1, 2012

  Actual Average Record
Temperature  
Mean Temperature 51 °F -  
Max Temperature 63 °F 47 °F 69 °F (1970)
Min Temperature 39 °F 31 °F 4 °F (1958)
Degree Days  
Heating Degree Days 14    
Growing Degree Days 1 (Base 50)    
Moisture  
Dew Point 41 °F    
Average Humidity 74    
Maximum Humidity 89    
Minimum Humidity 52    
Precipitation  
Precipitation 0.00 in - - ()
Sea Level Pressure  
Sea Level Pressure 30.23 in    
Wind  
Wind Speed 2 mph (South)    
Max Wind Speed 10 mph    
Max Gust Speed -    
Visibility 10 miles    
Events      
Averages and records for this station are not official NWS values.
T = Trace of Precipitation, MM = Missing Value Source: NWS Daily Summary

Daily Weather History Graph

Daily Weather History Graph

Search for Another Location

Airport:

Trip Planner

Search our weather history database for the weather conditions in past years. The results will help you decide how hot, cold, wet, or windy it might be!

Date:

Astronomy

Dec. 01, 2012 Rise Set
Actual Time 7:38 AM EST 5:15 PM EST
Civil Twilight 7:08 AM EST 5:44 PM EST
Nautical Twilight 6:35 AM EST 6:18 PM EST
Astronomical Twilight 6:03 AM EST 6:50 PM EST
Moon 8:04 PM EST (12/1) 9:50 AM EST (12/1)
Length of Visible Light 10h 36m
Length of Day
9h 37m
Waning Gibbous, 92% of the Moon is Illuminated
Dec 1
Waning Gibbous
Dec 6
Last Quarter
Dec 13
New
Dec 20
First Quarter
Dec 28
Full

Hourly Weather History & Observations

Time (EST) Temp. Windchill Dew Point Humidity Pressure Visibility Wind Dir Wind Speed Gust Speed Precip Events Conditions
12:53 AM 41.0 °F - 36.0 °F 82% 30.24 in 10.0 mi Calm Calm - N/A   Mostly Cloudy
1:53 AM 39.0 °F - 36.0 °F 89% 30.25 in 9.0 mi Calm Calm - N/A   Mostly Cloudy
2:53 AM 42.1 °F - 37.0 °F 82% 30.26 in 9.0 mi Calm Calm - N/A   Overcast
3:53 AM 41.0 °F 39.0 °F 37.9 °F 89% 30.28 in 9.0 mi NE 3.5 mph - N/A   Overcast
4:53 AM 41.0 °F - 37.0 °F 86% 30.25 in 9.0 mi Calm Calm - N/A   Scattered Clouds
5:53 AM 39.9 °F - 37.0 °F 89% 30.26 in 8.0 mi Calm Calm - N/A   Overcast
6:53 AM 43.0 °F - 39.0 °F 86% 30.27 in 9.0 mi Calm Calm - N/A   Overcast
7:53 AM 41.0 °F - 37.9 °F 89% 30.29 in 9.0 mi Calm Calm - N/A   Overcast
8:53 AM 42.1 °F - 39.0 °F 89% 30.30 in 7.0 mi Calm Calm - N/A   Mostly Cloudy
9:53 AM 48.0 °F - 41.0 °F 77% 30.29 in 10.0 mi Calm Calm - N/A   Overcast
10:53 AM 53.1 °F - 41.0 °F 64% 30.29 in 10.0 mi South 4.6 mph - N/A   Overcast
11:53 AM 55.9 °F - 42.1 °F 60% 30.27 in 10.0 mi South 4.6 mph - N/A   Overcast
12:53 PM 57.9 °F - 43.0 °F 58% 30.24 in 10.0 mi South 4.6 mph - N/A   Overcast
1:53 PM 61.0 °F - 44.1 °F 54% 30.22 in 10.0 mi South 8.1 mph - N/A   Partly Cloudy
2:53 PM 63.0 °F - 45.0 °F 52% 30.20 in 10.0 mi South 9.2 mph - N/A   Clear
3:53 PM 62.1 °F - 45.0 °F 53% 30.19 in 10.0 mi South 10.4 mph - N/A   Clear
4:53 PM 60.1 °F - 43.0 °F 53% 30.19 in 10.0 mi South 6.9 mph - N/A   Clear
5:53 PM 54.0 °F - 42.1 °F 64% 30.19 in 10.0 mi Calm Calm - N/A   Clear
6:53 PM 51.1 °F - 42.1 °F 71% 30.20 in 10.0 mi Calm Calm - N/A   Clear
7:53 PM 46.9 °F - 39.9 °F 77% 30.20 in 10.0 mi Calm Calm - N/A   Clear
8:53 PM 46.9 °F - 41.0 °F 80% 30.18 in 10.0 mi WSW 3.5 mph - N/A   Clear
9:53 PM 46.0 °F - 41.0 °F 83% 30.18 in 10.0 mi Calm Calm - N/A   Clear
10:53 PM 50.0 °F - 44.1 °F 80% 30.18 in 10.0 mi WSW 3.5 mph - N/A   Overcast
11:53 PM 53.1 °F - 45.0 °F 74% 30.18 in 10.0 mi SSW 4.6 mph - N/A   Overcast